When you browse on this site, cookies collect data to enhance your experience and personalize the content and advertising you see.
Visit our Privacy Policy to learn more. By continuing to use the site, you agree to this use of cookies and data.
  • In Lithuania
  • List of Countries
  • For 7 days
  • Water Temperature
  • Weather Map
  • Weather Widgets
  • user-avatar
    Login

    Hourly Weather Bregenz

    Today, 16 September, Monday

    Time Temperature Precipitation Wind Pressure Humidity
    00:00 +12°C° 0 mm 1 mps 652 mmHg 82%
    01:00 +12°C° 0 mm 1 mps 652 mmHg 83%
    02:00 +12°C° 0 mm 1 mps 651 mmHg 84%
    03:00 +12°C° 0 mm 1 mps 651 mmHg 84%
    04:00 +12°C° 0 mm 1 mps 651 mmHg 84%
    05:00 +12°C° 0 mm 1 mps 651 mmHg 83%
    06:00 +12°C° 0 mm 1 mps 651 mmHg 83%
    07:00 +13°C° 0 mm 1 mps 651 mmHg 83%
    08:00 +15°C° 0 mm 1 mps 651 mmHg 77%
    09:00 +18°C° 0 mm 1 mps 652 mmHg 71%
    10:00 +20°C° 0 mm 1 mps 652 mmHg 66%
    11:00 +21°C° 0.2 mm 1 mps 652 mmHg 63%
    12:00 +21°C° 0.2 mm 1 mps 652 mmHg 59%
    13:00 +22°C° 0.2 mm 1 mps 652 mmHg 56%
    14:00 +22°C° 0.2 mm 1 mps 652 mmHg 60%
    15:00 +21°C° 0.2 mm 1 mps 651 mmHg 64%
    16:00 +21°C° 0.2 mm 1 mps 651 mmHg 67%
    17:00 +19°C° 0.2 mm 1 mps 650 mmHg 74%
    18:00 +16°C° 0.2 mm 1 mps 650 mmHg 80%
    19:00 +14°C° 0.2 mm 1 mps 649 mmHg 87%
    20:00 +13°C° 0 mm 1 mps 649 mmHg 88%
    21:00 +13°C° 0 mm 1 mps 649 mmHg 89%
    22:00 +12°C° 0 mm 1 mps 649 mmHg 90%
    23:00 +12°C° 0 mm 1 mps 649 mmHg 90%

    Tomorrow, 17 September, Tuesday

    Time Temperature Precipitation Wind Pressure Humidity
    00:00 +11°C° 0 mm 1 mps 649 mmHg 91%
    01:00 +11°C° 0 mm 1 mps 649 mmHg 91%
    02:00 +11°C° 0 mm 1 mps 649 mmHg 92%
    03:00 +11°C° 0 mm 1 mps 648 mmHg 92%
    04:00 +10°C° 0 mm 1 mps 648 mmHg 92%
    05:00 +11°C° 0 mm 1 mps 648 mmHg 92%
    06:00 +11°C° 0 mm 1 mps 648 mmHg 92%
    07:00 +10°C° 0 mm 0 mps 648 mmHg 91%
    08:00 +13°C° 0 mm 1 mps 649 mmHg 87%
    09:00 +14°C° 0 mm 1 mps 649 mmHg 83%
    10:00 +16°C° 0 mm 1 mps 650 mmHg 78%
    11:00 +16°C° 0.1 mm 1 mps 650 mmHg 74%
    12:00 +18°C° 0.1 mm 1 mps 650 mmHg 70%
    13:00 +17°C° 0.1 mm 2 mps 649 mmHg 65%
    14:00 +17°C° 0.1 mm 2 mps 649 mmHg 64%
    15:00 +17°C° 0.1 mm 2 mps 649 mmHg 63%
    16:00 +18°C° 0.1 mm 1 mps 649 mmHg 62%
    17:00 +15°C° 0 mm 1 mps 648 mmHg 72%
    18:00 +13°C° 0 mm 1 mps 648 mmHg 81%
    19:00 +11°C° 0 mm 1 mps 648 mmHg 90%
    20:00 +10°C° 0.1 mm 1 mps 648 mmHg 91%
    21:00 +10°C° 0.1 mm 1 mps 648 mmHg 91%
    22:00 +10°C° 0.1 mm 1 mps 648 mmHg 92%
    23:00 +9°C° 0 mm 1 mps 648 mmHg 91%

    Day after tomorrow, 18 September, Wednesday

    Time Temperature Precipitation Wind Pressure Humidity
    00:00 +8°C° 0 mm 2 mps 648 mmHg 91%
    01:00 +7°C° 0 mm 2 mps 648 mmHg 90%
    02:00 +7°C° 0 mm 2 mps 648 mmHg 90%
    03:00 +6°C° 0 mm 2 mps 648 mmHg 91%
    04:00 +6°C° 0 mm 2 mps 648 mmHg 91%
    05:00 +6°C° 0 mm 1 mps 648 mmHg 92%
    06:00 +6°C° 0 mm 1 mps 648 mmHg 92%
    07:00 +6°C° 0 mm 1 mps 648 mmHg 93%
    08:00 +6°C° 0 mm 2 mps 648 mmHg 88%
    09:00 +7°C° 0 mm 2 mps 649 mmHg 84%
    10:00 +8°C° 0 mm 2 mps 649 mmHg 80%
    11:00 +9°C° 0 mm 2 mps 649 mmHg 76%
    12:00 +10°C° 0 mm 2 mps 649 mmHg 72%
    13:00 +12°C° 0 mm 2 mps 649 mmHg 69%
    14:00 +11°C° 0 mm 3 mps 649 mmHg 68%
    15:00 +10°C° 0 mm 3 mps 649 mmHg 68%
    16:00 +10°C° 0 mm 3 mps 649 mmHg 67%
    17:00 +9°C° 0 mm 3 mps 649 mmHg 73%
    18:00 +7°C° 0 mm 2 mps 648 mmHg 78%
    19:00 +6°C° 0 mm 2 mps 648 mmHg 83%
    20:00 +6°C° 0 mm 1 mps 648 mmHg 85%
    21:00 +5°C° 0 mm 1 mps 648 mmHg 87%
    22:00 +4°C° 0 mm 1 mps 648 mmHg 89%
    23:00 +4°C° 0 mm 1 mps 648 mmHg 90%

    19 September, Thursday

    Time Temperature Precipitation Wind Pressure Humidity
    00:00 +3°C° 0 mm 0 mps 648 mmHg 91%
    01:00 +2°C° 0 mm 0 mps 648 mmHg 92%
    02:00 +2°C° 0 mm 0 mps 648 mmHg 92%
    03:00 +2°C° 0 mm 0 mps 648 mmHg 93%
    04:00 +1°C° 0 mm 0 mps 648 mmHg 93%
    05:00 +2°C° 0 mm 0 mps 648 mmHg 93%
    06:00 +2°C° 0 mm 0 mps 648 mmHg 92%
    07:00 +2°C° 0 mm 0 mps 648 mmHg 92%
    08:00 +5°C° 0 mm 1 mps 649 mmHg 83%
    09:00 +7°C° 0 mm 1 mps 650 mmHg 74%
    10:00 +8°C° 0 mm 2 mps 651 mmHg 65%
    11:00 +9°C° 0 mm 2 mps 651 mmHg 62%
    12:00 +10°C° 0 mm 3 mps 651 mmHg 59%
    13:00 +11°C° 0 mm 3 mps 651 mmHg 56%
    14:00 +11°C° 0 mm 3 mps 651 mmHg 57%
    15:00 +10°C° 0 mm 3 mps 651 mmHg 58%
    16:00 +10°C° 0 mm 3 mps 651 mmHg 59%
    17:00 +8°C° 0 mm 3 mps 650 mmHg 69%
    18:00 +6°C° 0 mm 2 mps 650 mmHg 78%
    19:00 +5°C° 0 mm 1 mps 650 mmHg 88%
    20:00 +4°C° 0 mm 1 mps 650 mmHg 89%
    21:00 +4°C° 0 mm 1 mps 650 mmHg 91%
    22:00 +3°C° 0 mm 1 mps 650 mmHg 92%
    23:00 +3°C° 0 mm 1 mps 650 mmHg 92%

    20 September, Friday

    Time Temperature Precipitation Wind Pressure Humidity
    00:00 +3°C° 0 mm 1 mps 650 mmHg 92%
    01:00 +2°C° 0 mm 1 mps 650 mmHg 92%
    02:00 +2°C° 0 mm 1 mps 650 mmHg 92%
    03:00 +2°C° 0 mm 1 mps 649 mmHg 91%
    04:00 +2°C° 0 mm 1 mps 649 mmHg 91%
    05:00 +2°C° 0 mm 1 mps 649 mmHg 90%
    06:00 +2°C° 0 mm 0 mps 649 mmHg 89%
    07:00 +2°C° 0 mm 0 mps 649 mmHg 88%
    08:00 +5°C° 0 mm 1 mps 650 mmHg 80%
    09:00 +7°C° 0 mm 1 mps 651 mmHg 72%
    10:00 +10°C° 0 mm 1 mps 652 mmHg 64%
    11:00 +10°C° 0 mm 2 mps 652 mmHg 60%
    12:00 +12°C° 0 mm 2 mps 652 mmHg 57%
    13:00 +13°C° 0 mm 2 mps 652 mmHg 53%
    14:00 +13°C° 0 mm 2 mps 652 mmHg 54%
    15:00 +13°C° 0 mm 2 mps 652 mmHg 56%
    16:00 +13°C° 0 mm 2 mps 651 mmHg 57%
    17:00 +9°C° 0 mm 2 mps 651 mmHg 67%
    18:00 +8°C° 0 mm 1 mps 650 mmHg 77%
    19:00 +5°C° 0 mm 1 mps 650 mmHg 87%
    20:00 +5°C° 0 mm 1 mps 650 mmHg 88%
    21:00 +5°C° 0 mm 1 mps 650 mmHg 88%
    22:00 +5°C° 0 mm 1 mps 650 mmHg 88%
    23:00 +5°C° 0 mm 1 mps 650 mmHg 89%

    21 September, Saturday

    Time Temperature Precipitation Wind Pressure Humidity
    00:00 +4°C° 0 mm 1 mps 650 mmHg 90%
    01:00 +4°C° 0 mm 1 mps 650 mmHg 91%
    02:00 +4°C° 0 mm 1 mps 650 mmHg 91%
    03:00 +4°C° 0 mm 1 mps 650 mmHg 91%
    04:00 +4°C° 0 mm 1 mps 650 mmHg 91%
    05:00 +4°C° 0 mm 1 mps 650 mmHg 90%
    06:00 +5°C° 0 mm 1 mps 650 mmHg 89%
    07:00 +5°C° 0 mm 1 mps 650 mmHg 88%
    08:00 +8°C° 0 mm 1 mps 651 mmHg 79%
    09:00 +11°C° 0 mm 1 mps 651 mmHg 71%
    10:00 +14°C° 0 mm 1 mps 652 mmHg 62%
    11:00 +15°C° 0 mm 1 mps 652 mmHg 60%
    12:00 +16°C° 0 mm 1 mps 652 mmHg 57%
    13:00 +18°C° 0 mm 1 mps 652 mmHg 55%
    14:00 +18°C° 0 mm 1 mps 652 mmHg 57%
    15:00 +16°C° 0 mm 1 mps 652 mmHg 59%
    16:00 +16°C° 0 mm 1 mps 652 mmHg 61%
    17:00 +14°C° 0 mm 1 mps 651 mmHg 70%
    18:00 +12°C° 0 mm 1 mps 651 mmHg 79%
    19:00 +10°C° 0 mm 1 mps 650 mmHg 88%
    20:00 +9°C° 0 mm 1 mps 650 mmHg 88%
    21:00 +9°C° 0 mm 1 mps 651 mmHg 87%
    22:00 +9°C° 0 mm 1 mps 651 mmHg 87%
    23:00 +9°C° 0 mm 1 mps 651 mmHg 86%
    Show more